Chanute, KS

9:33 AM CDT on October 17, 2017 (GMT -0500)
Chanute Martin Johnson

Weather History for KCNU - June, 2013

Change the Weather History Date:

Sunday, June 30, 2013

  Actual Average Record
Temperature  
Mean Temperature 71 °F 78 °F  
Max Temperature 81 °F 88 °F 105 °F (1917)
Min Temperature 61 °F 68 °F 54 °F (1924)
Degree Days  
Heating Degree Days 0 0  
Month to date heating degree days 10 4  
Since 1 June heating degree days 10 6  
Since 1 July heating degree days 4322 4483  
Cooling Degree Days 6 13  
Month to date cooling degree days 314 292  
Year to date cooling degree days 437 425  
Since 1 June cooling degree days 314 292  
Growing Degree Days 20 (Base 50)    
Moisture  
Dew Point 55 °F    
Average Humidity 60    
Maximum Humidity 84    
Minimum Humidity 36    
Precipitation  
Precipitation 0.00 in 0.16 in 3.60 in (1900)
Month to date precipitation 4.12 6.03  
Year to date precipitation 21.84 22.43  
Sea Level Pressure  
Sea Level Pressure 29.95 in    
Wind  
Wind Speed 9 mph (North)    
Max Wind Speed 18 mph    
Max Gust Speed 26 mph    
Visibility 10 miles    
Events      
T = Trace of Precipitation, MM = Missing Value Source: NWS Daily Summary

Daily Weather History Graph

Daily Weather History Graph

Search for Another Location

Airport or City:

Trip Planner

Search our weather history database for the weather conditions in past years. The results will help you decide how hot, cold, wet, or windy it might be!

Date:

Astronomy

Jun. 30, 2013 Rise Set
Actual Time 6:03 AM CDT 8:47 PM CDT
Civil Twilight 5:32 AM CDT 9:18 PM CDT
Nautical Twilight 4:53 AM CDT 9:57 PM CDT
Astronomical Twilight 4:09 AM CDT 10:41 PM CDT
Moon 12:57 AM CDT (6/30) 2:08 PM CDT (6/30)
Length of Visible Light 15h 46m
Length of Day
14h 43m
Last Quarter, 45% of the Moon is Illuminated
Jun 30
Last Quarter
Jul 8
New
Jul 15
First Quarter
Jul 22
Full
Jul 29
Last Quarter

Hourly Weather History & Observations

Time (CDT) Temp. Heat Index Dew Point Humidity Pressure Visibility Wind Dir Wind Speed Gust Speed Precip Events Conditions
12:52 AM 66.0 °F - 57.0 °F 73% 29.90 in 10.0 mi North 5.8 mph - N/A   Clear
1:52 AM 64.9 °F - 57.0 °F 75% 29.90 in 10.0 mi NNW 3.5 mph - N/A   Clear
2:52 AM 63.0 °F - 55.9 °F 78% 29.89 in 10.0 mi NNW 5.8 mph - N/A   Clear
3:52 AM 63.0 °F - 55.9 °F 78% 29.90 in 10.0 mi NNW 5.8 mph - N/A   Clear
4:52 AM 62.1 °F - 55.0 °F 78% 29.91 in 10.0 mi NNW 5.8 mph - N/A   Clear
5:52 AM 61.0 °F - 55.0 °F 81% 29.93 in 10.0 mi North 5.8 mph - N/A   Clear
6:52 AM 63.0 °F - 55.9 °F 78% 29.95 in 10.0 mi North 6.9 mph - N/A   Clear
7:52 AM 66.0 °F - 57.0 °F 73% 29.95 in 10.0 mi North 8.1 mph - N/A   Clear
8:52 AM 70.0 °F - 57.0 °F 63% 29.97 in 10.0 mi North 13.8 mph 19.6 mph N/A   Clear
9:52 AM 72.0 °F - 57.0 °F 59% 29.97 in 10.0 mi NNE 12.7 mph - N/A   Clear
10:52 AM 75.0 °F - 57.0 °F 53% 29.97 in 10.0 mi North 16.1 mph 23.0 mph N/A   Clear
11:52 AM 77.0 °F - 57.0 °F 50% 29.98 in 10.0 mi North 11.5 mph 21.9 mph N/A   Scattered Clouds
12:52 PM 77.0 °F - 55.0 °F 47% 29.97 in 10.0 mi North 15.0 mph 19.6 mph N/A   Scattered Clouds
1:52 PM 79.0 °F - 55.9 °F 45% 29.95 in 10.0 mi NNE 13.8 mph 19.6 mph N/A   Scattered Clouds
2:52 PM 79.0 °F - 55.9 °F 45% 29.96 in 10.0 mi NNE 9.2 mph 19.6 mph N/A   Scattered Clouds
3:52 PM 79.0 °F - 54.0 °F 42% 29.96 in 10.0 mi North 18.4 mph 21.9 mph N/A   Partly Cloudy
4:52 PM 80.1 °F 79.9 °F 53.1 °F 39% 29.95 in 10.0 mi North 10.4 mph 17.3 mph N/A   Clear
5:52 PM 80.1 °F - 52.0 °F 38% 29.95 in 10.0 mi North 10.4 mph 20.7 mph N/A   Partly Cloudy
6:52 PM 78.1 °F - 52.0 °F 40% 29.95 in 10.0 mi North 11.5 mph - N/A   Clear
7:52 PM 75.0 °F - 54.0 °F 48% 29.96 in 10.0 mi North 6.9 mph - N/A   Clear
8:52 PM 70.0 °F - 55.0 °F 59% 29.97 in 10.0 mi North 5.8 mph - N/A   Clear
9:52 PM 69.1 °F - 55.0 °F 61% 29.99 in 10.0 mi North 3.5 mph - N/A   Clear
10:52 PM 66.0 °F - 55.9 °F 70% 30.00 in 10.0 mi North 4.6 mph - N/A   Clear
11:52 PM 66.0 °F - 55.9 °F 70% 30.01 in 10.0 mi North 4.6 mph - N/A   Mostly Cloudy